Weather Roundup
Issued by NWS

Home | Current Version | Previous Version | Text Only | Print | Product List | Glossary On
Versions: 1 2 3 4 5 6 7 8 9 10 11 12 13 14 15 16 17 18 19 20 21 22 23 24 25 26 27 28 29 30 31 32 33 34 35 36 37 38 39 40 41 42 43 44 45 46 47 48 49 50
000
NZUS93 KARX 292059
HRRWXR

CURRENT HOURLY OBSERVATIONS ACROSS
MUCH OF THE UPPER MISSISSIPPI VALLEY
NATIONAL WEATHER SERVICE LA CROSSE WI
400 PM CDT MON JUN 29 2015


...SOUTHEAST MINNESOTA...


CITY           SKY/WX    TMP DP  RH WIND       PRES   REMARKS
ROCHESTER      SUNNY     80  64  58 NW14      29.81F
ROCHESTER/MAYO FAIR      80  61  53 W13G20    29.80F
WINONA         NOT AVBL
AUSTIN         SUNNY     79  63  57 NW12      29.82F
ALBERT LEA     MOSUNNY   81  63  54 W7G16     29.83F
DODGE CENTER   MOSUNNY   79  63  57 NW10G18   29.82F
PRESTON        MOSUNNY   78  62  56 W15       29.81F
OWATONNA       SUNNY     81  63  54 NW14      29.82F
FARIBAULT      SUNNY     81  64  57 W8        29.82S
$$

...ELSEWHERE IN MINNESOTA...


CITY           SKY/WX    TMP DP  RH WIND       PRES   REMARKS
MINNEAPOLIS    PTSUNNY   80  62  54 W9        29.79S
INTNL FALLS    PTSUNNY   73  59  61 N14G21    29.83R
DULUTH         MOSUNNY   76  60  57 N13       29.78R
RED WING       SUNNY     82  63  51 NW10      29.76S
REDWOOD FALLS  SUNNY     80  62  54 W13       29.84F
MANKATO        SUNNY     81  64  57 W14       29.83S
WORTHINGTON    SUNNY     79  59  50 W10       29.91F
FAIRMONT       SUNNY     79  61  53 NW13      29.87F
$$

...SOUTHWEST WISCONSIN...


CITY           SKY/WX    TMP DP  RH WIND       PRES   REMARKS
LA CROSSE      MOSUNNY   80  62  54 NW6       29.77F
PRAIRIE DU CHI PTSUNNY   80  61  52 NW3       29.79S
BOSCOBEL       MOSUNNY   82  62  50 NW8       29.78F
LONE ROCK      NOT AVBL
PLATTEVILLE    SUNNY     77  65  67 NW9       29.80F
FORT MC COY    MOSUNNY   79  59  49 W6        29.79F
VIROQUA        MOCLDY    78  60  55 NW5       29.81F
WIS DELLS      MOSUNNY   78  56  46 NW9       29.79S
$$

...ELSEWHERE IN WISCONSIN...


CITY           SKY/WX    TMP DP  RH WIND       PRES   REMARKS
MILWAUKEE      PTSUNNY   67  57  70 SE10      29.80F
MADISON        PTSUNNY   74  63  68 E12       29.78F
GREEN BAY      PTSUNNY   78  60  53 SW13      29.76F
EAU CLAIRE     PTSUNNY   63  57  82 E17G31    29.79R
BLACK RVR FLS  FAIR      80  57  46 W5        29.77F
MEDFORD        CLOUDY    58  55  91 N10G21    29.82R
WAUSAU         MOSUNNY   76  59  55 W9        29.76S
WIS RAPIDS     MOSUNNY   79  59  50 NW8       29.78F
MARSHFIELD     MOSUNNY   76  60  57 NW8       29.79
RICE LAKE      TSTM      64  60  88 CALM      29.81F
$$

...NORTHEAST IOWA...


CITY           SKY/WX    TMP DP  RH WIND       PRES   REMARKS
DECORAH          N/A    N/A N/A N/A MISG        N/A
MASON CITY     MOSUNNY   82  64  54 NW14      29.85F
CHARLES CITY   MOSUNNY   81  66  61 NW12      29.84F
OELWEIN        MOSUNNY   79  66  65 NW6       29.83S HAZE
$$

...ELSEWHERE IN IOWA...


CITY           SKY/WX    TMP DP  RH WIND       PRES   REMARKS
DES MOINES     CLOUDY    82  62  50 NW14      29.87F
IOWA CITY      MOSUNNY   80  63  55 NW9       29.82F
FORT DODGE     MOSUNNY   81  63  54 NW8       29.89F
$$

...NORTHERN ILLINOIS...


CITY           SKY/WX    TMP DP  RH WIND       PRES   REMARKS
CHICAGO-OHARE  TSTM      67  64  90 SW9       29.80R FOG
CHICAGO-MIDWAY LGT RAIN  73  64  73 SE5       29.80S
MOLINE         SUNNY     80  65  59 W9        29.81F
ROCKFORD       TSTM      72  65  78 SW5       29.81F
PEORIA         MOSUNNY   80  64  58 W12       29.82F
$$

NOTE: "FAIR" INDICATES FEW OR NO CLOUDS BELOW 12,000 FEET WITH NO
SIGNIFICANT WEATHER AND/OR OBSTRUCTIONS TO VISIBILITY. WIND
SPEEDS ARE IN MILES-PER-HOUR.



USA.gov is the U.S. government's official web portal to all federal, state and local government web resources and services.